Corpus Christi, TX

6:33 PM CDT on August 29, 2016 (GMT -0500)
Corpus Christi International

Weather History for KCRP - October, 2014

Change the Weather History Date:

Wednesday, October 15, 2014

  Actual Average Record
Temperature  
Mean Temperature 70 °F 75 °F  
Max Temperature 87 °F 85 °F 96 °F (2009)
Min Temperature 53 °F 65 °F 47 °F (1978)
Degree Days  
Heating Degree Days 0 0  
Month to date heating degree days 0 0  
Since 1 July heating degree days 0 0  
Cooling Degree Days 5 10  
Month to date cooling degree days 208 174  
Year to date cooling degree days 3415 3217  
Growing Degree Days 20 (Base 50)    
Moisture  
Dew Point 48 °F    
Average Humidity 49    
Maximum Humidity 78    
Minimum Humidity 19    
Precipitation  
Precipitation 0.00 in 0.12 in 2.12 in (1920)
Month to date precipitation 0.32 1.79  
Year to date precipitation 20.17 26.11  
Snow  
Snow 0.00 in - - ()
Month to date snowfall 0.0  
Since 1 July snowfall 0.0  
Since 1 September snowfall 0.0  
Snow Depth 0.00 in    
Sea Level Pressure  
Sea Level Pressure 30.08 in    
Wind  
Wind Speed 6 mph (SSW)    
Max Wind Speed 16 mph    
Max Gust Speed 22 mph    
Visibility 10 miles    
Events      
T = Trace of Precipitation, MM = Missing Value Source: NWS Daily Summary

Daily Weather History Graph

Daily Weather History Graph

Search for Another Location

Airport or City:

Trip Planner

Search our weather history database for the weather conditions in past years. The results will help you decide how hot, cold, wet, or windy it might be!

Date:

Astronomy

Oct. 15, 2014 Rise Set
Actual Time 7:30 AM CDT 7:00 PM CDT
Civil Twilight 7:06 AM CDT 7:24 PM CDT
Nautical Twilight 6:39 AM CDT 7:51 PM CDT
Astronomical Twilight 6:12 AM CDT 8:18 PM CDT
Moon 12:22 AM CDT (10/15) 2:01 PM CDT (10/15)
Length of Visible Light 12h 17m
Length of Day
11h 30m
Waning Gibbous, 51% of the Moon is Illuminated
Oct 15
Waning Gibbous
Oct 15
Last Quarter
Oct 23
New
Oct 30
First Quarter
Nov 6
Full

Hourly Weather History & Observations

Time (CDT) Temp. Dew Point Humidity Pressure Visibility Wind Dir Wind Speed Gust Speed Precip Events Conditions
12:51 AM 60.8 °F 46.4 °F 59% 30.11 in 10.0 mi Calm Calm - N/A   Clear
1:51 AM 57.9 °F 46.9 °F 67% 30.10 in 10.0 mi Calm Calm - N/A   Clear
2:51 AM 57.0 °F 48.9 °F 74% 30.10 in 10.0 mi WSW 3.5 mph - N/A   Clear
3:51 AM 57.0 °F 48.0 °F 72% 30.09 in 10.0 mi West 5.8 mph - N/A   Clear
4:51 AM 55.9 °F 48.0 °F 75% 30.08 in 10.0 mi WNW 3.5 mph - N/A   Clear
5:51 AM 55.9 °F 48.0 °F 75% 30.09 in 10.0 mi Calm Calm - N/A   Clear
6:51 AM 55.0 °F 48.9 °F 80% 30.10 in 10.0 mi West 4.6 mph - N/A   Clear
7:51 AM 54.0 °F 46.0 °F 75% 30.11 in 10.0 mi NW 4.6 mph - N/A   Clear
8:51 AM 64.0 °F 51.1 °F 63% 30.12 in 10.0 mi Calm Calm - N/A   Clear
9:51 AM 73.9 °F 46.0 °F 37% 30.14 in 10.0 mi WSW 5.8 mph - N/A   Clear
10:51 AM 79.0 °F 48.0 °F 34% 30.14 in 10.0 mi SW 6.9 mph - N/A   Clear
11:51 AM 82.9 °F 46.9 °F 28% 30.14 in 10.0 mi SW 6.9 mph - N/A   Clear
12:51 PM 84.0 °F 44.1 °F 25% 30.12 in 10.0 mi Calm Calm - N/A   Clear
1:51 PM 86.0 °F 42.1 °F 21% 30.09 in 10.0 mi South 9.2 mph - N/A   Partly Cloudy
2:51 PM 86.0 °F 39.0 °F 19% 30.06 in 10.0 mi Variable 6.9 mph - N/A   Partly Cloudy
3:51 PM 86.0 °F 41.0 °F 20% 30.04 in 10.0 mi SE 6.9 mph - N/A   Partly Cloudy
4:51 PM 86.0 °F 46.0 °F 25% 30.02 in 10.0 mi South 12.7 mph 18.4 mph N/A   Clear
5:51 PM 82.0 °F 46.9 °F 29% 30.02 in 10.0 mi SSE 12.7 mph - N/A   Clear
6:51 PM 75.9 °F 50.0 °F 40% 30.03 in 10.0 mi SSE 9.2 mph - N/A   Clear
7:51 PM 69.1 °F 52.0 °F 54% 30.03 in 10.0 mi SSE 8.1 mph - N/A   Clear
8:51 PM 63.0 °F 55.0 °F 75% 30.04 in 10.0 mi SSE 9.2 mph - N/A   Clear
9:51 PM 64.9 °F 54.0 °F 68% 30.04 in 10.0 mi SSE 9.2 mph - N/A   Clear
10:51 PM 64.0 °F 54.0 °F 70% 30.04 in 10.0 mi South 8.1 mph - N/A   Clear
11:51 PM 64.9 °F 55.0 °F 70% 30.03 in 10.0 mi South 8.1 mph - N/A   Clear